Weather observations for the past three days for
Los Angeles, Los Angeles International Airport
Imperial (Metric)
Date Time (pdt) Wind (mph) Vis. (mi.) Weather Sky Cond. Temperature (ºF) Relative Humidity Wind Chill (°F) Heat Index (°F) Pressure Precipitation (in)
Air Dwpt 6 hour altimeter (in) sea level (mb) 1 hr 3 hr 6 hr
Max. Min.
17 03:53 S 5 10.00 Partly Cloudy SCT010 66 61 84% 29.94 1013.6
17 02:53 Calm 10.00 Mostly Cloudy BKN010 66 60.1 81% 29.94 1013.7
17 01:53 Vrbl 3 10.00 Fair CLR 66 60.1 81% 29.94 1013.5
17 00:53 W 6 10.00 Fair CLR 66.9 61 81% 29.94 1013.6
16 23:53 W 9 10.00 Fair CLR 66 60.1 81% 29.95 1013.8
16 22:53 W 9 10.00 Fair CLR 66 61 72 66 84% 29.95 1013.8
16 21:53 SW 8 10.00 Fair CLR 66.9 60.1 79% 29.94 1013.6
16 20:53 SW 9 10.00 A Few Clouds FEW090 66.9 59 76% 29.93 1013.3
16 19:53 W 17 10.00 Fair CLR 69.1 59 70% 29.93 1013.2
16 18:53 W 15 10.00 A Few Clouds FEW012 FEW150 70 59 68% 29.92 1013.1
16 17:53 W 16 10.00 A Few Clouds FEW012 FEW100 71.1 60.1 68% 29.93 1013.4
16 16:53 W 15 10.00 Partly Cloudy FEW012 FEW100 SCT150 72 62.1 75.9 72 71% 29.94 1013.8
16 15:53 W 15 10.00 Partly Cloudy FEW012 FEW045 SCT100 73 63 71% 29.96 1014.2
16 14:53 W 15 10.00 A Few Clouds FEW045 FEW100 73.9 62.1 67% 29.97 1014.8
16 13:53 W 14 10.00 Partly Cloudy FEW010 FEW045 SCT070 73.9 63 69% 29.99 1015.2
16 12:53 W 13 10.00 Partly Cloudy FEW029 FEW040 SCT070 75 63 66% 77 29.99 1015.5
16 11:53 SW 8 9.00 A Few Clouds FEW027 FEW070 75.9 63 64% 78 30 1015.9
16 10:53 SW 8 9.00 A Few Clouds FEW025 FEW070 73 62.1 75 64 69% 30.01 1015.9
16 09:53 SE 6 9.00 Partly Cloudy FEW015 FEW040 SCT070 75 61 62% 77 30.01 1015.9
16 08:53 SE 6 9.00 Partly Cloudy FEW019 FEW040 SCT065 71.1 62.1 73% 30.02 1016.3
16 07:53 W 5 8.00 Partly Cloudy FEW015 FEW027 SCT120 68 61 78% 30 1015.9
16 06:53 W 5 8.00 Partly Cloudy FEW014 FEW025 SCT110 66 61 84% 29.99 1015.5
16 05:53 NW 3 10.00 Partly Cloudy FEW012 FEW020 SCT100 64.9 60.1 84% 29.98 1015.0
16 04:53 W 6 10.00 A Few Clouds FEW012 64 60.1 66.9 64 87% 29.97 1014.6
16 03:53 S 5 10.00 A Few Clouds FEW011 64.9 60.1 84% 29.96 1014.4
16 02:53 W 5 10.00 A Few Clouds FEW011 64.9 60.1 84% 29.96 1014.4
16 01:53 S 5 10.00 Mostly Cloudy BKN012 66 61 84% 29.97 1014.6
16 00:53 Calm 10.00 Fair CLR 66 61 84% 29.98 1014.9
15 23:53 W 5 10.00 A Few Clouds FEW018 66 60.1 81% 29.99 1015.2
15 22:53 W 9 10.00 A Few Clouds FEW018 66.9 61 71.1 66 81% 29.98 1015.1
15 21:53 SW 8 10.00 Fair CLR 66.9 60.1 79% 29.98 1014.8
15 20:53 SW 7 10.00 A Few Clouds FEW012 66 61 84% 29.95 1014.1
15 19:53 W 10 10.00 A Few Clouds FEW012 FEW070 66.9 62.1 84% 29.93 1013.5
15 18:53 W 14 10.00 A Few Clouds FEW010 FEW070 69.1 62.1 78% 29.93 1013.4
15 17:53 W 14 10.00 A Few Clouds FEW012 FEW060 70 60.1 71% 29.94 1013.7
15 16:53 W 17 10.00 A Few Clouds FEW012 FEW070 71.1 62.1 73 70 73% 29.94 1013.9
15 15:53 W 17 10.00 A Few Clouds FEW011 FEW070 71.1 61 71% 29.95 1014.2
15 14:53 W 17 10.00 Mostly Cloudy BKN010 BKN070 71.1 62.1 73% 29.98 1015.0
15 13:53 W 14 G 23 10.00 Partly Cloudy FEW009 SCT045 SCT070 71.1 62.1 73% 30 1015.6
15 12:53 W 13 9.00 Partly Cloudy FEW016 SCT060 SCT080 72 62.1 71% 30.02 1016.4
15 11:53 W 13 G 21 9.00 Partly Cloudy FEW014 SCT060 SCT080 72 62.1 71% 30.03 1016.9
15 10:53 W 8 8.00 Partly Cloudy FEW012 SCT060 72 62.1 72 64 71% 30.05 1017.4
15 09:53 SW 7 8.00 Partly Cloudy FEW011 SCT014 70 62.1 76% 30.06 1017.7
15 08:53 Calm 7.00 Overcast OVC011 69.1 62.1 78% 30.06 1017.9
15 07:53 Vrbl 5 7.00 Overcast OVC009 66 61 84% 30.07 1017.9
15 06:53 SW 6 7.00 Overcast OVC010 64.9 61 87% 30.05 1017.5
15 05:53 W 5 9.00 Overcast OVC009 64.9 61 87% 30.04 1017.0
15 04:53 SW 7 10.00 Mostly Cloudy BKN009 64 61 64.9 64 90% 30.03 1016.7
15 03:53 SW 7 10.00 Overcast OVC009 64.9 61 87% 30.03 1016.6
15 02:53 W 8 10.00 Mostly Cloudy BKN009 64.9 61 87% 30.03 1016.5
15 01:53 SW 8 10.00 Mostly Cloudy BKN009 64.9 61 87% 30.03 1016.5
15 00:53 W 8 10.00 A Few Clouds FEW009 64 61 90% 30.03 1016.5
14 23:53 W 9 10.00 A Few Clouds FEW009 64 60.1 87% 30.02 1016.3
14 22:53 W 9 10.00 Partly Cloudy SCT009 64 61 71.1 64 90% 30.03 1016.7
14 21:53 W 9 10.00 Mostly Cloudy BKN009 64 61 90% 30.04 1016.9
14 20:53 W 12 10.00 Partly Cloudy SCT009 64.9 61 87% 30.01 1016.1
14 19:53 W 12 10.00 A Few Clouds FEW010 FEW070 66 61 84% 30.01 1015.9
14 18:53 W 13 10.00 A Few Clouds FEW010 FEW060 66.9 61 81% 30.01 1015.9
14 17:53 W 13 10.00 Partly Cloudy FEW012 FEW060 SCT150 69.1 62.1 78% 30.01 1015.9
14 16:53 W 13 10.00 Partly Cloudy FEW012 FEW065 SCT150 70 62.1 75 70 76% 30.01 1016.2
14 15:53 W 15 10.00 Partly Cloudy FEW011 FEW065 SCT150 72 62.1 71% 30.02 1016.2
14 14:53 W 14 10.00 Partly Cloudy FEW010 FEW065 SCT100 72 63 73% 30.02 1016.4
14 13:53 W 12 10.00 Mostly Cloudy FEW010 SCT065 BKN080 73 63 71% 30.03 1016.5
14 12:53 W 12 9.00 Mostly Cloudy FEW018 SCT065 BKN080 73.9 64 71% 30.04 1017.1
14 11:53 W 9 8.00 Mostly Cloudy FEW017 SCT060 BKN080 73 64 74% 30.06 1017.8
14 10:53 SW 6 7.00 Mostly Cloudy FEW014 SCT018 BKN060 71.1 63 73 66 76% 30.06 1017.9
14 09:53 Vrbl 7 6.00 Mostly Cloudy with Haze FEW013 BKN016 BKN045 71.1 63 76% 30.06 1017.7
14 08:53 SE 3 6.00 Overcast with Haze OVC012 69.1 63 81% 30.08 1018.3
14 07:53 Calm 6.00 Overcast with Haze OVC010 66.9 62.1 84% 30.07 1018.2
14 06:53 W 3 6.00 Fog/Mist OVC009 66 63 90% 30.05 1017.3
14 05:53 W 6 8.00 Overcast OVC009 66 62.1 87% 30.03 1016.8
14 04:53 W 7 9.00 Overcast OVC008 66 62.1 66 64.9 87% 30.01 1016.1
Date Time (pdt) Wind (mph) Vis. (mi.) Weather Sky Cond. Air Dwpt Max. Min. Relative Humidity Wind Chill (°F) Heat Index (°F) altimeter (in) sea level (mb) 1 hr 3 hr 6 hr
6 hour
Temperature (ºF) Pressure Precipitation (in)